Dax, France

9:46 AM CEST on March 28, 2017 (GMT +0200)
Seyresse Army

Weather History for LFBY - March, 2013

Change the Weather History Date:

Thursday, March 7, 2013

  Actual Average (LFBZ) Record (LFBZ)
Temperature  
Mean Temperature 60 °F -  
Max Temperature 71 °F 58 °F 69 °F (2001)
Min Temperature 48 °F 44 °F 26 °F (2005)
Degree Days  
Heating Degree Days 6    
Growing Degree Days 10 (Base 50)    
Moisture  
Dew Point 50 °F    
Average Humidity 72    
Maximum Humidity 94    
Minimum Humidity 38    
Precipitation  
Precipitation 0.00 in - - ()
Sea Level Pressure  
Sea Level Pressure 29.42 in    
Wind  
Wind Speed 5 mph ()    
Max Wind Speed 22 mph    
Max Gust Speed 37 mph    
Visibility 6.2 miles    
Events Rain    
Averages and records for this station are not official NWS values.
T = Trace of Precipitation, MM = Missing Value Source: Averaged Metar Reports

Daily Weather History Graph

Daily Weather History Graph

Search for Another Location

Airport or City:

Trip Planner

Search our weather history database for the weather conditions in past years. The results will help you decide how hot, cold, wet, or windy it might be!

Date:

Astronomy

Mar. 07, 2013 Rise Set
Actual Time 7:30 AM CET 7:00 PM CET
Civil Twilight 7:01 AM CET 7:29 PM CET
Nautical Twilight 6:28 AM CET 8:02 PM CET
Astronomical Twilight 5:55 AM CET 8:36 PM CET
Moon 4:25 AM CET (3/7) 2:25 PM CET (3/7)
Length of Visible Light 12h 27m
Length of Day
11h 30m
Waning Crescent, 22% of the Moon is Illuminated
Mar 7
Waning Crescent
Mar 11
New
Mar 19
First Quarter
Mar 27
Full
Apr 3
Last Quarter

Hourly Weather History & Observations

Time (CET) Temp. Dew Point Humidity Pressure Visibility Wind Dir Wind Speed Gust Speed Precip Events Conditions
12:00 AM 55.4 °F 51.8 °F 88% 29.42 in 6.2 mi SE 2.3 mph - N/A   Unknown
1:00 AM 57.2 °F 51.8 °F 82% 29.44 in 6.2 mi WSW 6.9 mph - N/A   Unknown
2:00 AM 55.4 °F 50.0 °F 82% 29.44 in 6.2 mi SW 8.1 mph - N/A   Unknown
3:00 AM 55.4 °F 50.0 °F 82% 29.47 in 6.2 mi SW 5.8 mph - N/A   Unknown
4:00 AM 53.6 °F 50.0 °F 88% 29.44 in 6.2 mi Variable 1.2 mph - N/A   Unknown
5:00 AM 51.8 °F 50.0 °F 94% 29.47 in 6.2 mi Calm Calm - N/A   Unknown
6:00 AM 50.0 °F 48.2 °F 94% 29.47 in 6.2 mi Calm Calm - N/A   Unknown
8:00 AM 48.2 °F 46.4 °F 93% 29.47 in - ESE 3.5 mph - N/A   Clear
9:00 AM 55.4 °F 48.2 °F 77% 29.47 in - SSE 2.3 mph - N/A   Clear
10:00 AM 62.6 °F 48.2 °F 59% 29.47 in - Calm Calm - N/A   Clear
11:00 AM 66.2 °F 48.2 °F 52% 29.47 in - SSW 6.9 mph - N/A   Clear
12:00 PM 68.0 °F 46.4 °F 46% 29.44 in - South 10.4 mph - N/A   Clear
1:00 PM 69.8 °F 46.4 °F 43% 29.42 in - South 13.8 mph - N/A   Clear
2:00 PM 71.6 °F 44.6 °F 38% 29.39 in - South 12.7 mph - N/A   Clear
3:00 PM 68.0 °F 46.4 °F 46% 29.39 in - SSW 13.8 mph - N/A   Clear
4:00 PM 68.0 °F 48.2 °F 49% 29.36 in 6.2 mi South 9.2 mph - N/A   Mostly Cloudy
5:00 PM 68.0 °F 50.0 °F 52% 29.33 in 6.2 mi SSE 6.9 mph - N/A Rain Light Rain
6:00 PM 62.6 °F 53.6 °F 72% 29.33 in 6.2 mi Variable 2.3 mph - N/A   Unknown
7:00 PM 60.8 °F 53.6 °F 77% 29.33 in 6.2 mi Variable 3.5 mph - N/A   Unknown
8:00 PM 57.2 °F 53.6 °F 88% 29.33 in 6.2 mi East 9.2 mph - N/A   Unknown
9:00 PM 57.2 °F 55.4 °F 94% 29.33 in 6.2 mi SSE 4.6 mph - N/A   Unknown
10:00 PM 57.2 °F 48.2 °F 72% 29.42 in 6.2 mi West 21.9 mph - N/A   Unknown
11:00 PM 53.6 °F 50.0 °F 88% 29.47 in - West 19.6 mph 36.8 mph N/A   Mostly Cloudy